Weather History for Bryce Canyon, UT

Change the Weather History Date:

Sunday, March 3, 2013

  Actual Average Record
Temperature  
Mean Temperature 32 °F -  
Max Temperature 45 °F 39 °F 55 °F (1999)
Min Temperature 19 °F 15 °F -6 °F (1965)
Degree Days  
Heating Degree Days 33    
Moisture  
Dew Point 25 °F    
Average Humidity 68    
Maximum Humidity 93    
Minimum Humidity 44    
Precipitation  
Precipitation 0.01 in - - ()
Sea Level Pressure  
Sea Level Pressure 29.91 in    
Wind  
Wind Speed 5 mph (West)    
Max Wind Speed 14 mph    
Max Gust Speed 21 mph    
Visibility 10 miles    
Events Snow    
Averages and records for this station are not official NWS values.
T = Trace of Precipitation, MM = Missing Value Source: NWS Daily Summary

Daily Weather History Graph

Daily Weather History Graph

Search for Another Location

Airport:

Trip Planner

Search our weather history database for the weather conditions in past years. The results will help you decide how hot, cold, wet, or windy it might be!

Date:

Astronomy

Mar. 03, 2013 Rise Set
Actual Time 6:56 AM MST 6:24 PM MST
Civil Twilight 6:30 AM MST 6:50 PM MST
Nautical Twilight 6:00 AM MST 7:21 PM MST
Astronomical Twilight 5:29 AM MST 7:51 PM MST
Moon 12:00 AM MST (3/3) 10:22 AM MST (3/3)
Length of Visible Light 12h 20m
Length of Day
11h 27m
Waning Gibbous, 63% of the Moon is Illuminated
Mar 3
Waning Gibbous
Mar 4
Last Quarter
Mar 11
New
Mar 19
First Quarter
Mar 27
Full

Hourly Weather History & Observations

Time (MST) Temp. Windchill Dew Point Humidity Pressure Visibility Wind Dir Wind Speed Gust Speed Precip Events Conditions
12:53 AM 21.9 °F - 18.0 °F 85% 30.12 in 10.0 mi Calm Calm - N/A   Clear
1:53 AM 21.9 °F 14.5 °F 18.0 °F 85% 30.09 in 10.0 mi WSW 5.8 mph - N/A   Clear
2:53 AM 19.9 °F - 17.1 °F 89% 30.06 in 10.0 mi Calm Calm - N/A   Clear
3:53 AM 23.0 °F - 19.9 °F 88% 30.02 in 10.0 mi Calm Calm - N/A   Clear
4:53 AM 21.9 °F - 18.0 °F 85% 30.01 in 10.0 mi Calm Calm - N/A   Partly Cloudy
5:53 AM 32.0 °F 27.5 °F 21.0 °F 64% 29.97 in 10.0 mi South 4.6 mph - N/A   Overcast
6:53 AM 30.9 °F - 24.1 °F 76% 29.99 in 10.0 mi Calm Calm - N/A   Overcast
7:53 AM 37.9 °F 30.9 °F 23.0 °F 55% 29.98 in 10.0 mi WNW 10.4 mph 20.7 mph N/A   Overcast
8:53 AM 39.0 °F 32.8 °F 24.1 °F 55% 29.98 in 10.0 mi NNW 9.2 mph - N/A   Overcast
9:53 AM 39.9 °F 36.7 °F 27.0 °F 60% 29.97 in 10.0 mi WSW 4.6 mph - N/A   Overcast
10:53 AM 42.1 °F 36.1 °F 23.0 °F 47% 29.94 in 10.0 mi WSW 10.4 mph - N/A   Overcast
11:53 AM 44.1 °F 37.7 °F 24.1 °F 45% 29.90 in 10.0 mi SW 12.7 mph - N/A   Mostly Cloudy
12:53 PM 45.0 °F 40.1 °F 24.1 °F 44% 29.88 in 10.0 mi WSW 9.2 mph - N/A   Scattered Clouds
1:53 PM 45.0 °F 38.5 °F 26.1 °F 48% 29.86 in 10.0 mi SW 13.8 mph - N/A   Mostly Cloudy
2:53 PM 43.0 °F 37.7 °F 26.1 °F 51% 29.87 in 10.0 mi WSW 9.2 mph - N/A   Overcast
3:53 PM 44.1 °F 38.6 °F 26.1 °F 49% 29.85 in 10.0 mi West 10.4 mph - N/A   Overcast
4:53 PM 42.1 °F 36.1 °F 27.0 °F 55% 29.85 in 10.0 mi WSW 10.4 mph - N/A   Scattered Clouds
5:53 PM 39.0 °F 32.8 °F 28.0 °F 65% 29.81 in 10.0 mi WSW 9.2 mph - N/A   Overcast
6:53 PM 39.0 °F 32.3 °F 27.0 °F 62% 29.82 in 10.0 mi West 10.4 mph - N/A   Overcast
7:53 PM 37.0 °F - 28.0 °F 70% 29.79 in 10.0 mi Calm Calm - N/A   Overcast
8:53 PM 39.0 °F 34.8 °F 28.0 °F 65% 29.77 in 10.0 mi WNW 5.8 mph - 0.00 in   Overcast
9:53 PM 35.1 °F 25.9 °F 30.9 °F 85% 29.81 in 7.0 mi West 13.8 mph - 0.01 in Snow Light Snow
10:00 PM 35.6 °F 27.5 °F 30.2 °F 81% 29.95 in 7.0 mi West 11.5 mph - 0.00 in Snow Light Snow
10:14 PM 33.8 °F 26.4 °F 32.0 °F 93% 29.95 in 9.0 mi West 9.2 mph - 0.00 in   Overcast
10:53 PM 34.0 °F 29.8 °F 30.9 °F 89% 29.78 in 10.0 mi WNW 4.6 mph - 0.00 in   Overcast
11:53 PM 34.0 °F 31.0 °F 30.0 °F 85% 29.77 in 10.0 mi WNW 3.5 mph - N/A   Overcast